Погода в Лимане

Погода в Лимане : погода сейчас, прогноз погоды и архив. Всё, что Вы хотите узнать о погоде в Лимане!

Хотите узнать прогноз погоды в Лимане? Тогда Вам сюда: Погода в Лимане

Поиск расширенной информации на нашем сайте:

Полезная информация: аренда звукового оборудования цены

Другие новости

Новости СМИ2

Главная страница сайта

Новости сайта

02.10.2013

Напоминаем, что на нашем новом сайте вы можете получить высокодетализированные прогнозы погоды по пунктам России, СНГ и мира (включающие важные для авиации метеовеличины, такие как направление и скорость ветра, видимость, явления погоды, количество и форма облачности, нижняя и верхняя граница облачности), а также ознакомиться с разнообразными материалами по авиационной метеорологии и подборкой полезных ссылок на эту тему.

Сайт Метеоцентр.Азия посвящён разработке технологий оптимизации авиаметеорологического обслуживания, включая проектирование и перспективное создание нескольких автоматизированных авиаметеорологических систем:
- система выпуска высокодетальных прогностических карт явлений погоды для нижнего воздушного пространства по России и ближнему зарубежью;
- система верификации прогнозов TAF (выпускаемых синоптиками официальных АМСГ РФ и ближнего зарубежья) и AUTOTAF (выпускаемых сайтом Метеоцентр.Азия) - выявление ошибок, онлайн-сопоставление с фактической погодой METAR, автоматическое внесение коррективов в прогнозы при резком отклонении фактической погоды от прогноза, подсчёт оправдываемости прогнозов по элементам и в целом;
- система обработки, анализа и отображения авиаметеорологической информации для применения провайдерами метеорологической информации.

Рекомендуем: У нас король кордицепс цена ниже, чем в Китае!

Погода в Лимане - сегодня

Время (UTC), дата Ветер
(°,м/с) 
Видим.   Явления Облачность Т
(°С)
Тd
(°С)
f(%) Тe
(°С)
Pmin
(гПа)
dP
(гПа)
Po
(мм)
O2
(г/м3)
Тmin Tmax R s Состояние
почвы
03 25.06.17 290 (З) 20000 м    4/4 600 м 
[Cu Sc]
+19.7 +17.4 87 +34  1010.6  1.7  759  281  +19    0.8    влажная 
06 25.06.17 030 (СВ) 20000 м    10/0 средняя 
[Ac lent]
+20.3 +15.5 74 +29  1011.5  0.9  760  282           
09 25.06.17 360 (С) 20000 м  гроза без осадков{ливн. осадки}  10/10 600 м кучево-дожд. 
[Cb cap]
+16.5 +14.7 89 +25  1013.2  1.7  761  286           
12 25.06.17 350 (С) 20000 м  {гроза, ливн. осадки}  10/4 600 м кучево-дожд., средняя 
[Cb cap|Ac cuf]
+16.9 +13.6 81 +24  1013.7  0.5  762  286           
15 25.06.17 330 (СЗ) 20000 м    3/0 средняя 
[Ac trans]
+20 +13.5 66 +26  1014.8  1.1  762  284    +21.2  0.8     
18 25.06.17 220 (ЮЗ) 20000 м    ясно 
+14.5 +12.7 89 +21  1016.6  1.9  764  290           
21 25.06.17 230 (ЮЗ) 20000 м    ясно 
+15.1 +11 76 +18  1017.6  765  290           
00 26.06.17 240 (ЮЗ) 20000 м    ясно 
+15 +10.1 72 +17  1018.1  0.5  765  290           
03 26.06.17 240 (ЮЗ) 20000 м    ясно 
+16.1 +10.1 68 +18  1018.6  0.5  765  289  +13.4        влажная 
06 26.06.17 270 (З) 20000 м    ясно 
+24.6 +8.9 37 +25  1019.1  0.4  766  282           
09 26.06.17 130 (ЮВ) 20000 м    ясно 
+27 +6.5 27 +27  1018.7  -0.4  765  280           
12 26.06.17 110 (В) 20000 м    ясно 
+28.3 +8.8 29 +28  1017.7  -1  765  278           
15 26.06.17 130 (ЮВ) 20000 м    1/0 верхняя 
[Ci sp]
+26 +6.4 29 +26  1017.8  0.1  765  280    +28.5       
18 26.06.17 150 (ЮВ) 20000 м    ясно 
+20.2 +12.6 62 +25  1018.3  0.5  765  285           
21 26.06.17 150 (ЮВ) 20000 м    ясно 
+18.2 +13.7 75 +26  1017.5  -0.8  764  286           
00 27.06.17 140 (ЮВ) 20000 м    ясно 
+17.1 +13.8 81 +25  1016.6  -0.9  764  287           
03 27.06.17 070 (В) 20000 м    ясно 
+19.3 +15.7 80 +30  1017.1  0.5  764  284  +14.2        сухая 
06 27.06.17 120 (ЮВ) 20000 м    ясно 
+25.9 +12.5 43 +30  1016.7  -0.4  764  279           
09 27.06.17 100 (В) 20000 м    ясно 
+28.5 +12.3 37 +32  1015.2  -1.5  763  276           
12 27.06.17 100 (В) 20000 м    1/0 верхняя 
[Ci fib]
+28.9 +13.5 39 +35  1013.5  -1.7  761  275           
15 27.06.17 100 (В) 20000 м    1/0 верхняя 
[Ci fib]
+26.8 +14.9 48 +35  1013.1  -0.4  761  276    +29.1       
18 27.06.17 090 (В) 20000 м    ясно 
+22.1 +15.9 68 +32  1013.8  0.7  762  281           
21 27.06.17 060 (СВ) 20000 м    ясно 
+19.8 +17.7 88 +34  1013.2  -0.6  761  282           
00 28.06.17 070 (В) 4000 м  дымка  4/0 верхняя 
[Ci sp]
+19.6 +18.6 94 +36  1011.9  -1.3  760  281           
03 28.06.17 тихо ()   4000 м  дымка  9/0 средняя 
[Ac trans]
+20.8 +19.1 90 +37  1012.2  0.3  761  280  +18.3        сухая 
Время (UTC), дата Ветер
(°,м/с) 
Видим.   Явления Облачность Т
(°С)
Тd
(°С)
f(%) Тe
(°С)
Pmin
(гПа)
dP
(гПа)
Po
(мм)
O2
(г/м3)
Тmin Tmax R s Состояние
почвы

Для получения пояснительной информации подведите курсор к названию столбца.

ПОГОДА в Лимане - архив

Всё, что Вы хотите узнать о погоде в Лимане - удобно и подробно!

Выберите нужную дату (начиная с 1 января 2015* года) и нажмите кнопку "Найти".
Будут отображены архивные сводки погоды по пункту Лиман, начиная с указанной даты.


Отображать данные в формате CSV (для использования в таблицах Excel)


Внимание! Наш архив погоды предназначен исключительно для личного некоммерческого использования в познавательных целях. Если Вам необходимы официальные справки о состоянии погоды (для производственных, юридических, коммерческих и т.п. целей), обращайтесь в органы Росгидромета.

*Примечание: данная дата относится к архиву по метеостанциям СССР (Россия, СНГ, Балтия).
Архив по метеостанциям Зарубежной Европы и Азии (кроме Китая) хранится 10 дней, по другим регионам земного шара (Китай, Африка, Америка, Австралия, Океания) - 1 день.

Лиман - район местоположения метеостанции


Название, широта, долгота, высота метеостанции:
Лиман 45.8°ш. 47.2°д. -18 м над ур. моря [Российская Федерация]

Дополнительная информация

В oтличие oт бoльшинства пoгoдных сайтoв мы публикуем пoдрoбную метеoинфoрмацию в детальнoм прoфессиoнальнoм фoрмате.

Характеристики температуры и влажнoсти вoздуха измеряются на высoте 2 м в тени вдали oт зданий и деревьев.
Скoрoсть ветра измеряется на высoте 10 м (на урoвне рoста челoвека скoрoсть ветра ниже в 1.5-2 раза). Если метеoстанция нахoдится в гoрoде или в лесу, тo скoрoсть ветра занижена на 2-4 м/с пo сравнению с oткрытым местoм. Скoрoсть ветра над акватoриями крупных рек и oзёр, а также на вершинах хoлмoв на 2-5 м/с выше, чем в oбычных услoвиях.
Атмoсфернoе давление в разных тoчках местнoсти мoжет значительнo oтличаться oт давления на метеoстанции, в зависимoсти oт услoвий рельефа (при пoдъёме на 10 м давление пoнижается примернo на 1 мм рт.ст.).